| time (UTC) | temp F | wind direction | speed knots | gust knots | rain 1hr in | rain 24hr in | rain mn in | humidity % | barometer mb |
| 20260906071557 | 71 | 0 | 0.0 | 0.9 | 0.00 | 0.13 | 0.00 | 93 | 1016.7 |
| 20260906070051 | 71 | 0 | 0.0 | 0.9 | 0.00 | 0.13 | 0.00 | 94 | 1016.7 |
| 20260906064556 | 70 | 320 | 0.0 | 0.9 | 0.00 | 0.13 | 0.00 | 94 | 1016.7 |
| 20260906063055 | 70 | 302 | 0.0 | 0.9 | 0.00 | 0.13 | 0.00 | 94 | 1016.8 |
| 20260906061558 | 70 | 302 | 0.0 | 0.9 | 0.00 | 0.13 | 0.00 | 95 | 1017.0 |
| 20260906060052 | 70 | 0 | 0.0 | 0.0 | 0.00 | 0.13 | 0.00 | 93 | 1017.1 |
| 20260906054606 | 70 | 0 | 0.0 | 0.0 | 0.00 | 0.13 | 0.00 | 93 | 1017.4 |
| 20260906053054 | 71 | 0 | 0.0 | 0.0 | 0.00 | 0.13 | 0.00 | 92 | 1017.2 |
| 20260906051557 | 71 | 0 | 0.0 | 0.9 | 0.00 | 0.13 | 0.00 | 92 | 1017.5 |
| 20260906050120 | 72 | 96 | 0.0 | 0.0 | 0.00 | 0.13 | 0.00 | 90 | 1017.5 |
| 20260906044553 | 72 | 0 | 0.0 | 0.9 | 0.00 | 0.13 | 0.00 | 89 | 1017.3 |
| 20260906043100 | 72 | 0 | 0.0 | 0.9 | 0.00 | 0.13 | 0.00 | 90 | 1017.2 |
| 20260906041555 | 72 | 0 | 0.0 | 0.9 | 0.00 | 0.13 | 0.00 | 90 | 1017.2 |
| 20260906040113 | 72 | 0 | 0.0 | 0.0 | 0.00 | 0.13 | 0.00 | 90 | 1017.2 |
| 20260906034551 | 74 | 0 | 0.0 | 0.0 | 0.00 | 0.13 | 0.13 | 86 | 1017.5 |
| 20260906033100 | 73 | 0 | 0.0 | 0.0 | 0.00 | 0.13 | 0.13 | 86 | 1017.5 |
| 20260906031554 | 73 | 0 | 0.0 | 0.0 | 0.00 | 0.13 | 0.13 | 90 | 1017.8 |
| 20260906030055 | 72 | 0 | 0.0 | 0.0 | 0.00 | 0.13 | 0.13 | 90 | 1017.9 |
| 20260906024555 | 73 | 0 | 0.0 | 0.0 | 0.00 | 0.13 | 0.13 | 90 | 1017.7 |
| 20260906023057 | 72 | 0 | 0.0 | 0.0 | 0.00 | 0.13 | 0.13 | 90 | 1017.6 |
| 20260906021556 | 73 | 0 | 0.0 | 0.0 | 0.00 | 0.13 | 0.13 | 88 | 1017.7 |
| 20260906020055 | 74 | 0 | 0.0 | 3.5 | 0.00 | 0.13 | 0.13 | 87 | 1017.5 |
| 20260906014607 | 75 | 0 | 0.0 | 0.0 | 0.00 | 0.13 | 0.13 | 83 | 1017.5 |
| 20260906013053 | 74 | 0 | 0.0 | 0.0 | 0.00 | 0.13 | 0.13 | 86 | 1017.3 |
| 20260906011557 | 74 | 0 | 0.0 | 0.0 | 0.00 | 0.13 | 0.13 | 86 | 1017.2 |
| 20260906010051 | 75 | 93 | 0.9 | 1.7 | 0.00 | 0.13 | 0.13 | 85 | 1017.1 |
| 20260906004556 | 75 | 0 | 0.0 | 0.0 | 0.00 | 0.13 | 0.13 | 83 | 1016.9 |
| 20260906003057 | 76 | 0 | 0.0 | 0.0 | 0.00 | 0.13 | 0.13 | 81 | 1016.9 |
| 20260906001554 | 77 | 0 | 0.0 | 0.9 | 0.00 | 0.13 | 0.13 | 80 | 1016.7 |
| 20260905234611 | 80 | 0 | 0.0 | 0.9 | 0.00 | 0.13 | 0.13 | 75 | 1016.7 |
| 20260905233054 | 84 | 0 | 0.0 | 0.0 | 0.00 | 0.13 | 0.13 | 69 | 1016.7 |
| 20260905231629 | 86 | 0 | 0.0 | 0.9 | 0.00 | 0.13 | 0.13 | 67 | 1016.8 |
| 20260905230117 | 84 | 73 | 0.9 | 2.6 | 0.00 | 0.13 | 0.13 | 68 | 1016.8 |
| 20260905224556 | 85 | 37 | 0.9 | 3.5 | 0.00 | 0.13 | 0.13 | 66 | 1016.9 |
| 20260905223054 | 86 | 35 | 0.9 | 5.2 | 0.00 | 0.13 | 0.13 | 66 | 1017.1 |
| 20260905221557 | 86 | 6 | 2.6 | 6.1 | 0.00 | 0.13 | 0.13 | 65 | 1017.1 |
| 20260905220059 | 86 | 20 | 2.6 | 5.2 | 0.00 | 0.13 | 0.13 | 66 | 1017.0 |
| 20260905214556 | 85 | 349 | 2.6 | 6.1 | 0.00 | 0.13 | 0.13 | 66 | 1017.1 |
| 20260905213052 | 84 | 340 | 2.6 | 5.2 | 0.00 | 0.13 | 0.13 | 67 | 1017.1 |
| 20260905211601 | 84 | 302 | 1.7 | 6.1 | 0.00 | 0.13 | 0.13 | 70 | 1017.0 |
| 20260905210052 | 83 | 337 | 3.5 | 6.1 | 0.00 | 0.13 | 0.13 | 69 | 1017.1 |
| 20260905204550 | 83 | 339 | 3.5 | 6.1 | 0.00 | 0.13 | 0.13 | 69 | 1017.1 |
| 20260905203101 | 82 | 347 | 2.6 | 5.2 | 0.00 | 0.13 | 0.13 | 70 | 1017.3 |
| 20260905201555 | 81 | 307 | 4.3 | 7.8 | 0.00 | 0.13 | 0.13 | 73 | 1017.0 |
| 20260905200104 | 81 | 342 | 2.6 | 7.0 | 0.00 | 0.13 | 0.13 | 73 | 1017.3 |
| 20260905194549 | 81 | 265 | 0.9 | 6.1 | 0.00 | 0.13 | 0.13 | 72 | 1017.4 |
| 20260905193109 | 80 | 0 | 0.9 | 3.5 | 0.00 | 0.13 | 0.13 | 74 | 1017.8 |
| 20260905191554 | 80 | 40 | 1.7 | 3.5 | 0.00 | 0.13 | 0.13 | 74 | 1018.0 |
| 20260905190052 | 79 | 29 | 0.0 | 2.6 | 0.00 | 0.13 | 0.13 | 80 | 1018.3 |
| 20260905184554 | 77 | 319 | 0.9 | 4.3 | 0.00 | 0.13 | 0.13 | 85 | 1018.5 |
| 20260905183059 | 75 | 319 | 0.9 | 4.3 | 0.00 | 0.13 | 0.13 | 88 | 1018.8 |
| 20260905181558 | 73 | 347 | 0.9 | 6.1 | 0.00 | 0.13 | 0.13 | 91 | 1019.2 |
| 20260905180053 | 71 | 285 | 2.6 | 7.8 | 0.00 | 0.13 | 0.13 | 95 | 1019.4 |
| 20260905174548 | 70 | 309 | 0.0 | 3.5 | 0.00 | 0.13 | 0.13 | 96 | 1020.0 |
| 20260905173057 | 69 | 0 | 0.9 | 2.6 | 0.00 | 0.13 | 0.13 | 96 | 1020.3 |
| 20260905171559 | 69 | 0 | 0.0 | 2.6 | 0.09 | 0.13 | 0.13 | 96 | 1020.6 |
| 20260905170051 | 69 | 35 | 0.0 | 0.9 | 0.13 | 0.13 | 0.13 | 95 | 1020.5 |
| 20260905164558 | 69 | 169 | 0.0 | 1.7 | 0.13 | 0.13 | 0.13 | 95 | 1020.3 |
| 20260905163057 | 69 | 0 | 1.7 | 7.8 | 0.13 | 0.13 | 0.13 | 93 | 1020.6 |
| 20260905161551 | 72 | 58 | 7.8 | 19.1 | 0.04 | 0.04 | 0.04 | 89 | 1021.1 |
| 20260905160059 | 83 | 129 | 5.2 | 8.7 | 0.00 | 0.00 | 0.00 | 73 | 1020.4 |
| 20260905154604 | 85 | 16 | 0.9 | 3.5 | 0.00 | 0.00 | 0.00 | 70 | 1019.8 |
| 20260905153052 | 85 | 335 | 2.6 | 5.2 | 0.00 | 0.00 | 0.00 | 69 | 1020.0 |
| 20260905151552 | 84 | 1 | 3.5 | 6.1 | 0.00 | 0.00 | 0.00 | 70 | 1019.7 |
| 20260905150112 | 83 | 341 | 2.6 | 6.1 | 0.00 | 0.00 | 0.00 | 75 | 1019.6 |
| 20260905144554 | 83 | 321 | 1.7 | 5.2 | 0.00 | 0.00 | 0.00 | 74 | 1019.4 |
| 20260905143052 | 82 | 303 | 2.6 | 5.2 | 0.00 | 0.00 | 0.00 | 78 | 1019.5 |
| 20260905141551 | 81 | 0 | 0.0 | 3.5 | 0.00 | 0.00 | 0.00 | 81 | 1019.3 |
| 20260905140100 | 80 | 0 | 0.0 | 4.3 | 0.00 | 0.00 | 0.00 | 85 | 1019.7 |
| 20260905134554 | 78 | 0 | 0.0 | 2.6 | 0.00 | 0.00 | 0.00 | 88 | 1019.6 |
| 20260905133051 | 76 | 0 | 0.0 | 1.7 | 0.00 | 0.00 | 0.00 | 89 | 1019.6 |
| 20260905131547 | 74 | 317 | 0.0 | 1.7 | 0.00 | 0.00 | 0.00 | 91 | 1019.7 |
| 20260905130057 | 73 | 345 | 0.0 | 1.7 | 0.00 | 0.00 | 0.00 | 94 | 1019.9 |
| 20260905124558 | 72 | 309 | 0.9 | 1.7 | 0.00 | 0.00 | 0.00 | 96 | 1019.7 |
| 20260905123052 | 71 | 0 | 0.0 | 0.9 | 0.00 | 0.00 | 0.00 | 97 | 1019.8 |
| 20260905121601 | 70 | 0 | 0.0 | 0.0 | 0.00 | 0.00 | 0.00 | 97 | 1019.7 |
| 20260905120053 | 70 | 0 | 0.0 | 0.9 | 0.00 | 0.00 | 0.00 | 97 | 1019.6 |
| 20260905114558 | 70 | 0 | 0.0 | 1.7 | 0.00 | 0.00 | 0.00 | 97 | 1019.5 |
| 20260905113104 | 70 | 106 | 0.9 | 1.7 | 0.00 | 0.00 | 0.00 | 97 | 1019.4 |
| 20260905111552 | 70 | 0 | 0.0 | 1.7 | 0.00 | 0.00 | 0.00 | 96 | 1019.2 |
| 20260905110050 | 70 | 0 | 0.0 | 1.7 | 0.00 | 0.00 | 0.00 | 96 | 1018.8 |
| 20260905104557 | 70 | 110 | 0.0 | 1.7 | 0.00 | 0.00 | 0.00 | 96 | 1018.9 |
| 20260905103052 | 70 | 0 | 0.0 | 1.7 | 0.00 | 0.00 | 0.00 | 96 | 1018.8 |
| 20260905101552 | 70 | 0 | 0.0 | 1.7 | 0.00 | 0.00 | 0.00 | 95 | 1018.7 |
| 20260905100105 | 70 | 117 | 0.9 | 0.9 | 0.00 | 0.00 | 0.00 | 96 | 1018.6 |
| 20260905094555 | 70 | 117 | 0.9 | 0.9 | 0.00 | 0.00 | 0.00 | 95 | 1018.5 |
| 20260905093056 | 71 | 124 | 0.9 | 1.7 | 0.00 | 0.00 | 0.00 | 94 | 1018.6 |
| 20260905091601 | 71 | 0 | 0.0 | 0.9 | 0.00 | 0.00 | 0.00 | 94 | 1018.4 |
| 20260905084557 | 71 | 0 | 0.0 | 0.0 | 0.00 | 0.00 | 0.00 | 94 | 1018.5 |
| 20260905083054 | 71 | 0 | 0.0 | 0.0 | 0.00 | 0.00 | 0.00 | 93 | 1018.5 |
| 20260905081603 | 71 | 0 | 0.0 | 0.0 | 0.00 | 0.00 | 0.00 | 94 | 1018.4 |
| 20260905080053 | 71 | 0 | 0.0 | 0.0 | 0.00 | 0.00 | 0.00 | 93 | 1018.7 |
| 20260905074553 | 71 | 0 | 0.0 | 0.0 | 0.00 | 0.00 | 0.00 | 93 | 1019.0 |
| 20260905073103 | 71 | 0 | 0.0 | 0.0 | 0.00 | 0.00 | 0.00 | 93 | 1018.9 |